Weather History for Price, UT

Change the Weather History Date:

Thursday, January 31, 2013

  Actual Average Record
Temperature  
Mean Temperature 32 °F -  
Max Temperature 39 °F 35 °F 62 °F (1971)
Min Temperature 21 °F 17 °F -10 °F (1979)
Degree Days  
Heating Degree Days 32    
Moisture  
Dew Point 19 °F    
Average Humidity 55    
Maximum Humidity 75    
Minimum Humidity 45    
Precipitation  
Precipitation 0.00 in - - ()
Sea Level Pressure  
Sea Level Pressure 30.32 in    
Wind  
Wind Speed 7 mph (NW)    
Max Wind Speed 17 mph    
Max Gust Speed 28 mph    
Visibility 10 miles    
Events      
Averages and records for this station are not official NWS values.
T = Trace of Precipitation, MM = Missing Value Source: NWS Daily Summary

Daily Weather History Graph

Daily Weather History Graph

Search for Another Location

Airport:

Trip Planner

Search our weather history database for the weather conditions in past years. The results will help you decide how hot, cold, wet, or windy it might be!

Date:

Astronomy

Jan. 31, 2013 Rise Set
Actual Time 7:31 AM MST 5:42 PM MST
Civil Twilight 7:02 AM MST 6:10 PM MST
Nautical Twilight 6:30 AM MST 6:42 PM MST
Astronomical Twilight 5:58 AM MST 7:14 PM MST
Moon 10:46 PM MST (1/31) 9:34 AM MST (1/31)
Length of Visible Light 11h 07m
Length of Day
10h 10m
Waning Gibbous, 79% of the Moon is Illuminated
Jan 31
Waning Gibbous
Feb 3
Last Quarter
Feb 10
New
Feb 17
First Quarter
Feb 25
Full

Hourly Weather History & Observations

Time (MST) Temp. Windchill Dew Point Humidity Pressure Visibility Wind Dir Wind Speed Gust Speed Precip Events Conditions
12:53 AM 36.0 °F 26.0 °F 19.9 °F 52% 30.23 in 10.0 mi WNW 17.3 mph 26.5 mph N/A   Clear
1:53 AM 36.0 °F 29.6 °F 19.0 °F 50% 30.24 in 10.0 mi NW 8.1 mph 27.6 mph N/A   Partly Cloudy
2:53 AM 36.0 °F 33.3 °F 19.0 °F 50% 30.24 in 10.0 mi Variable 3.5 mph - N/A   Clear
3:53 AM 37.0 °F 34.5 °F 18.0 °F 46% 30.25 in 10.0 mi Variable 3.5 mph - N/A   Mostly Cloudy
4:53 AM 36.0 °F 29.0 °F 17.1 °F 46% 30.22 in 10.0 mi WNW 9.2 mph - N/A   Clear
5:53 AM 33.1 °F 26.1 °F 17.1 °F 52% 30.26 in 10.0 mi NW 8.1 mph - N/A   Clear
6:53 AM 30.9 °F 22.2 °F 17.1 °F 57% 30.29 in 10.0 mi NW 10.4 mph - N/A   Clear
7:53 AM 34.0 °F 26.6 °F 18.0 °F 52% 30.32 in 10.0 mi WNW 9.2 mph - N/A   Clear
8:53 AM 37.0 °F 32.4 °F 18.0 °F 46% 30.32 in 10.0 mi WNW 5.8 mph - N/A   Clear
9:53 AM 30.0 °F - 17.1 °F 59% 30.37 in 10.0 mi Calm Calm - N/A   Clear
10:53 AM 33.1 °F 28.7 °F 19.0 °F 56% 30.37 in 10.0 mi SE 4.6 mph - N/A   Clear
11:53 AM 34.0 °F 31.0 °F 19.0 °F 54% 30.35 in 10.0 mi SW 3.5 mph - N/A   Clear
12:53 PM 37.0 °F - 19.9 °F 50% 30.31 in 10.0 mi Calm Calm - N/A   Clear
1:53 PM 37.0 °F 34.5 °F 21.0 °F 52% 30.31 in 10.0 mi SE 3.5 mph - N/A   Clear
2:53 PM 37.9 °F 35.5 °F 21.0 °F 51% 30.30 in 10.0 mi East 3.5 mph - N/A   Clear
3:53 PM 39.0 °F 36.8 °F 19.0 °F 45% 30.29 in 10.0 mi SSE 3.5 mph - N/A   Clear
4:53 PM 37.9 °F - 19.0 °F 47% 30.30 in 10.0 mi Calm Calm - N/A   Clear
5:53 PM 35.1 °F 32.2 °F 19.9 °F 54% 30.33 in 10.0 mi ESE 3.5 mph - N/A   Clear
6:53 PM 30.9 °F - 19.0 °F 61% 30.37 in 10.0 mi Calm Calm - N/A   Clear
7:53 PM 30.0 °F 23.2 °F 19.0 °F 64% 30.38 in 10.0 mi North 6.9 mph - N/A   Clear
8:53 PM 28.9 °F 25.2 °F 19.0 °F 67% 30.36 in 10.0 mi North 3.5 mph - N/A   Clear
9:53 PM 26.1 °F 17.6 °F 18.0 °F 71% 30.40 in 10.0 mi NNE 8.1 mph - N/A   Clear
10:53 PM 28.9 °F - 18.0 °F 64% 30.37 in 10.0 mi Calm Calm - N/A   Clear
11:53 PM 21.9 °F - 15.1 °F 75% 30.38 in 10.0 mi Calm Calm - N/A   Clear